Location: *
(58.4167°N, 22.5000°E)
Time: 02:27:20
(UTC+00:00)

Cosmos 1420 Rocket - Pass Details

Date: 22 September 2019
Orbit: 754 x 781 km, 74.0° (Epoch: 16 October)

Event Time Altitude Azimuth Distance (km) Brightness Sun altitude
Rises 19:12:53 0° 208° (SSW) 3,254 7.2 -20.6°
Reaches altitude 10° 19:15:15 10° 208° (SSW) 2,333 6.4 -20.8°
Maximum altitude 19:20:34 89° 124° (ESE) 791 3.9 -21.3°
Drops below altitude 10° 19:25:57 10° 31° (NNE) 2,351 6.6 -21.9°
Sets 19:28:21 0° 32° (NNE) 3,282 7.4 -22.1°
